1312764631635,0.000144305
1312764691635,0.000144610
1312764751635,0.000145581
1312764811635,0.000145721
1312764871635,0.000146420
1312768231645,0.000145692
1312768291645,0.000144189
1312768351645,0.000144160
1312768411645,0.000143719
1312768471645,0.000144694
1312768531645,0.000144715
1312768591645,0.000144792
1312768651645,0.000146003
1312768711645,0.000146009
1312768771645,0.000145052
1312768831654,0.000147867
1312768891654,0.000145403
1312768951654,0.000143726
1312769011654,0.000145568
1312769071654,0.000145411
1312769131654,0.000146027
1312769191654,0.000143893
1312769251654,0.000145565
1312769311654,0.000144761
1312769371654,0.000144912
1312769431654,0.000143741
1312769491654,0.000143910
1312769551654,0.000144374
1312769611654,0.000143514
1312769671654,0.000142335
1312769731654,0.000143059
1312769791654,0.000144114
1312769851654,0.000143729
1312769911654,0.000142821
1312769971654,0.000142206
1312770031654,0.000144473
1312770091654,0.000144178
1312770151654,0.000143931
1312770211654,0.000144088
1312770271654,0.000143644
1312770331654,0.000144006
1312770391654,0.000144401
1312770451654,0.000144380
1312770511654,0.000143747
1312770571654,0.000145967
1312770631654,0.000143215
1312770691654,0.000143573
1312770751654,0.000144655
1312770811654,0.000144208
1312770871654,0.000146230
1312770931654,0.000145969
1312770991654,0.000146016
1312771051654,0.000145619
1312771111654,0.000146341
1312771171654,0.000146050
1312771231654,0.000144962
1312771291654,0.000145509
1312771351654,0.000146197
1312771411654,0.000145628
1312771471654,0.000144932
1312771531654,0.000144610
1312771591654,0.000144101
1312771651654,0.000142968
1312771711654,0.000142888
1312771771654,0.000143681
1312771831654,0.000143374
1312771891654,0.000142416
1312771951654,0.000143002
1312772011654,0.000143498
1312772071654,0.000142732
1312772131654,0.000143549
1312772191654,0.000145185
1312772251654,0.000143841
1312772311654,0.000143704
1312772371654,0.000144340
1312772431664,0.000145522
1312772491664,0.000144070
1312772551664,0.000145927
1312772611664,0.000146777
1312772671664,0.000145278
1312772731664,0.000144579
1312772791664,0.000146122
1312772851664,0.000145173
1312772911664,0.000147701
1312772971664,0.000150708
1312773031664,0.000150367
1312773091664,0.000146832
1312773151664,0.000146391
1312773211664,0.000144568
1312773271664,0.000146534
1312773331664,0.000144251
1312773391664,0.000144471
1312773451664,0.000145396
1312773511664,0.000146296
1312773571664,0.000147366
1312773631664,0.000147076
1312773691664,0.000146392
1312773751664,0.000144526
1312773811664,0.000145080
1312773871664,0.000148542
1312773931664,0.000147091
1312773991664,0.000145040
1312774051664,0.000145230
1312774111664,0.000144603
1312774171664,0.000144248
1312774231664,0.000144240
1312774291664,0.000144014
1312774351664,0.000144290
1312774411664,0.000142978
1312774471664,0.000145072
1312774531664,0.000143931
1312774591664,0.000143978
1312774651664,0.000144834
1312774711664,0.000142011
1312774771664,0.000142993
1312774831664,0.000145737
1312774891664,0.000143585
1312774951664,0.000144295
1312775011664,0.000143932
1312775071664,0.000144049
1312775131664,0.000143996
1312775191664,0.000146202
1312775251664,0.000143935
1312775311664,0.000143953
1312775371664,0.000143957
1312775431664,0.000142829
1312775491664,0.000143317
1312775551664,0.000143227
1312775611664,0.000144969
1312775671664,0.000145363
1312775731664,0.000144819
1312775791664,0.000143292
1312775851664,0.000142634
1312775911664,0.000142909
1312775971664,0.000142135
1312776031673,0.000143319
1312776091673,0.000141089
1312776151673,0.000142410
1312776211673,0.000143338
1312776271673,0.000144569
1312776331673,0.000142783
1312776391673,0.000144919
1312776451673,0.000144991
1312776511673,0.000143273
1312776571673,0.000143424
1312776631673,0.000145582
1312776691673,0.000145578
1312776751673,0.000145014
1312776811673,0.000144515
1312776871673,0.000143341
1312776931673,0.000141948
1312776991673,0.000144156
1312777051673,0.000144449
1312777111673,0.000144884
1312777171673,0.000144840
1312777231673,0.000144389
1312777291673,0.000144744
1312777351673,0.000145328
1312777411673,0.000144302
1312777471673,0.000143981
1312777531673,0.000145567
1312777591673,0.000144916
1312777651673,0.000144590
1312777711673,0.000145350
1312777771673,0.000145359
1312777831673,0.000144690
1312777891673,0.000144536
1312777951673,0.000143884
1312778011673,0.000144199
1312778071673,0.000143473
1312778131673,0.000143725
1312778191673,0.000145213
1312778251673,0.000142866
1312778311673,0.000144071
1312778371673,0.000144439
1312778431673,0.000144623
1312778491673,0.000142621
1312778551673,0.000142369
1312778611673,0.000141878
1312778671673,0.000141915
1312778731673,0.000141351
1312778791673,0.000143012
1312778851673,0.000144762
1312778911673,0.000142837
1312778971673,0.000142120
1312779031673,0.000143029
1312779091673,0.000143503
1312779151673,0.000143925
1312779211673,0.000144414
1312779271673,0.000142470
1312782631682,0.000145666
1312782691682,0.000144708
1312782751682,0.000145263
1312782811682,0.000144936
1312782871682,0.000143503
1312786231691,0.000141105
1312786291691,0.000142303
1312786351691,0.000142463
1312786411691,0.000141988
1312786471691,0.000139853
1312789831700,0.000141242
1312789891700,0.000140851
1312789951700,0.000142625
1312790011700,0.000141813
1312790071700,0.000139991
1312793431709,0.000143064
1312793491709,0.000141711
1312793551709,0.000142345
1312793611709,0.000142808
1312793671709,0.000141308
1312797031718,0.000142032
1312797091718,0.000143294
1312797151718,0.000143678
1312797211718,0.000143195
1312797271718,0.000140370
1312800631727,0.000143260
1312800691727,0.000144928
1312800751727,0.000145066
1312800811727,0.000144140
1312800871727,0.000140844
1312804231736,0.000142772
1312804291736,0.000141521
1312804351736,0.000143182
1312804411736,0.000144250
1312804471736,0.000142384
1312807831745,0.000144796
1312807891745,0.000144505
1312807951745,0.000142320
1312808011745,0.000142815
1312808071745,0.000142091
1312811431755,0.000143782
1312811491755,0.000143321
1312811551755,0.000142519
1312811611755,0.000142303
1312811671755,0.000143021
1312815031764,0.000144629
1312815091764,0.000143624
1312815151764,0.000144098
1312815211764,0.000142701
1312815271764,0.000141004
1312818631774,0.000144769
1312818691774,0.000144789
1312818751774,0.000144721
1312818811774,0.000143924
1312818871774,0.000145473
1312822231784,0.000144140
1312822291784,0.000142736
1312822351784,0.000144113
1312822411784,0.000142816
1312822471784,0.000141087
1312825831794,0.000142603
1312825891794,0.000143811
1312825951794,0.000144959
1312826011794,0.000143367
1312826071794,0.000141949
1312829431805,0.000145369
1312829491805,0.000144220
1312829551805,0.000144730
1312829611805,0.000143001
1312829671805,0.000143255
1312833031815,0.000141500
1312833091815,0.000144600
1312833151815,0.000142893
1312833211815,0.000144154
1312833271815,0.000143876
1312836631826,0.000143018
1312836691826,0.000143067
1312836751826,0.000143860
1312836811826,0.000144090
1312836871826,0.000141541
1312840231836,0.000144648
1312840291836,0.000145118
1312840351836,0.000144608
1312840411836,0.000145245
1312840471836,0.000143741
1312843831847,0.000144670
1312843891847,0.000143403
1312843951847,0.000143269
1312844011847,0.000143128
1312844071847,0.000141609
1312847431857,0.000144847
1312847491857,0.000145138
1312847551857,0.000143015
1312847611857,0.000145580
1312847671857,0.000143881
